STARLINK-1080, 44961

Orbit data source: Space-Track

STARLINK-1080, 44961 is a payload satellite owned by SpaceX/Seattle (US) in LEO that was launched on Tue, 07 Jan 2020 UTC via an FALCON 9 launch vehicle from the Air Force Eastern Test Range (AFETR). Payload-class satellites include a variety of spacecraft equipped with specific instruments for various scientific and technological missions. These include communications satellites like Starlink; space stations such as the ISS; scientific satellites like the Hubble; Earth observation satellites from companies like Planet Labs, Umbra, and HawkEye 360; GPS; miniature CubeSats for education and research; and military/defense satellites.

Loading next visibility...
Identifier
44961, 2020-001AZ
Orbit
LEO
Country
Flag of USUS
Related business
Manufacturer
SpaceX/Seattle
Mission
Operational Commercial Communications
Bus & Motor
STARLINK, Unknown motor
Mass
260 kg wet, ~248 kg dry
Launch date (UTC)
2020-01-07 (6 years ago)
Launch vehicle
FALCON 9
Launch site
Air Force Eastern Test Range (AFETR)
Object type
Payload
Rocket body
Debris
Shape & HBR
Box + 1 Pan, 10.1 m
Radar Cross Section
13.562 m², Large (>1 m²)

Expand to show TLE details & history
Last TLE update: 21 hours ago

TLE from 21 hours ago
0 STARLINK-1080
1 44961U 20001AZ  25290.97800839  .00009314  00000-0  64299-3 0  9999
2 44961  53.0540 227.2824 0001648  80.0678 280.0497 15.06421584318905
Epoch: 2025-10-17T23:28Z
TLE epoch observation values (Epoch: 2025-10-17T23:28:19.924Z)
Latitude
-0.00004°
Longitude
-151.51627°
Altitude
547.826 km
Speed
7.589 km/s
True Right ascension
15h 09m 07s
True Declination
0° 00' 00"
Sunlit
Object was in daylight at epoch
Visualization orbit readout
Latitude
Unknown
Longitude
Unknown
Altitude
Unknown
Speed
Unknown
Apparent Right ascension
Unknown
Apparent Declination
Unknown
Sunlit
N/A
Visualization observer readout
Local Sidereal Time
15:05:06
Azimuth
Unknown
Elevation
Unknown
Doppler factor
Unknown
Orbital elements
Apogee altitude
548.558 km
Perigee altitude
546.275 km
Semi-major axis
6,925.553 km
Eccentricity
0.00016
Inclination
53.054°
RAAN
227.2824°
Arg. of periapsis
80.0678°
True anomaly
280.0311°
Mean anomaly
280.0497°
Eccentric anomaly
280.0404°
Mean motion
3.76584 °/min
Orbital period
95.6 mins
BSTAR
0.00064299
Loading maneuver chart data...
Computing Atmospheric mass density...

Documentation

Showing up to 5 results
|